Year,Month,Day,Hour,Minute,Value (Times are PST for insolation in W/m^2)
2020,08,07,00,00,0.00
2020,08,07,00,01,0.00
2020,08,07,00,02,0.00
2020,08,07,00,03,0.00
2020,08,07,00,04,0.00
2020,08,07,00,05,0.00
2020,08,07,00,06,0.00
2020,08,07,00,07,0.00
2020,08,07,00,08,0.00
2020,08,07,00,09,0.00
2020,08,07,00,10,0.00
2020,08,07,00,11,0.00
2020,08,07,00,12,0.00
2020,08,07,00,13,0.00
2020,08,07,00,14,0.00
2020,08,07,00,15,0.00
2020,08,07,00,16,0.00
2020,08,07,00,17,0.00
2020,08,07,00,18,0.00
2020,08,07,00,19,0.00
2020,08,07,00,20,0.00
2020,08,07,00,21,0.00
2020,08,07,00,22,0.00
2020,08,07,00,23,0.00
2020,08,07,00,24,0.00
2020,08,07,00,25,0.00
2020,08,07,00,26,0.00
2020,08,07,00,27,0.00
2020,08,07,00,28,0.00
2020,08,07,00,29,0.00
2020,08,07,00,30,0.00
2020,08,07,00,31,0.00
2020,08,07,00,32,0.00
2020,08,07,00,33,0.00
2020,08,07,00,34,0.00
2020,08,07,00,35,0.00
2020,08,07,00,36,0.00
2020,08,07,00,37,0.00
2020,08,07,00,38,0.00
2020,08,07,00,39,0.00
2020,08,07,00,40,0.00
2020,08,07,00,41,0.00
2020,08,07,00,42,0.00
2020,08,07,00,43,0.00
2020,08,07,00,44,0.00
2020,08,07,00,45,0.00
2020,08,07,00,46,0.00
2020,08,07,00,47,0.00
2020,08,07,00,48,0.00
2020,08,07,00,49,0.00
2020,08,07,00,50,0.00
2020,08,07,00,51,0.00
2020,08,07,00,52,0.00
2020,08,07,00,53,0.00
2020,08,07,00,54,0.00
2020,08,07,00,55,0.00
2020,08,07,00,56,0.00
2020,08,07,00,57,0.00
2020,08,07,00,58,0.00
2020,08,07,00,59,0.00
2020,08,07,01,00,0.00
2020,08,07,01,01,0.00
2020,08,07,01,02,0.00
2020,08,07,01,03,0.00
2020,08,07,01,04,0.00
2020,08,07,01,05,0.00
2020,08,07,01,06,0.00
2020,08,07,01,07,0.00
2020,08,07,01,08,0.00
2020,08,07,01,09,0.00
2020,08,07,01,10,0.00
2020,08,07,01,11,0.00
2020,08,07,01,12,0.00
2020,08,07,01,13,0.00
2020,08,07,01,14,0.00
2020,08,07,01,15,0.00
2020,08,07,01,16,0.00
2020,08,07,01,17,0.00
2020,08,07,01,18,0.00
2020,08,07,01,19,0.00
2020,08,07,01,20,0.00
2020,08,07,01,21,0.00
2020,08,07,01,22,0.00
2020,08,07,01,23,0.00
2020,08,07,01,24,0.00
2020,08,07,01,25,0.00
2020,08,07,01,26,0.00
2020,08,07,01,27,0.00
2020,08,07,01,28,0.00
2020,08,07,01,29,0.00
2020,08,07,01,30,0.00
2020,08,07,01,31,0.00
2020,08,07,01,32,0.00
2020,08,07,01,33,0.00
2020,08,07,01,34,0.00
2020,08,07,01,35,0.00
2020,08,07,01,36,0.00
2020,08,07,01,37,0.00
2020,08,07,01,38,0.00
2020,08,07,01,39,0.00
2020,08,07,01,40,0.00
2020,08,07,01,41,0.00
2020,08,07,01,42,0.00
2020,08,07,01,43,0.00
2020,08,07,01,44,0.00
2020,08,07,01,45,0.00
2020,08,07,01,46,0.00
2020,08,07,01,47,0.00
2020,08,07,01,48,0.00
2020,08,07,01,49,0.00
2020,08,07,01,50,0.00
2020,08,07,01,51,0.00
2020,08,07,01,52,0.00
2020,08,07,01,53,0.00
2020,08,07,01,54,0.00
2020,08,07,01,55,0.00
2020,08,07,01,56,0.00
2020,08,07,01,57,0.00
2020,08,07,01,58,0.00
2020,08,07,01,59,0.00
2020,08,07,02,00,0.00
2020,08,07,02,01,0.00
2020,08,07,02,02,0.00
2020,08,07,02,03,0.00
2020,08,07,02,04,0.00
2020,08,07,02,05,0.00
2020,08,07,02,06,0.00
2020,08,07,02,07,0.00
2020,08,07,02,08,0.00
2020,08,07,02,09,0.00
2020,08,07,02,10,0.00
2020,08,07,02,11,0.00
2020,08,07,02,12,0.00
2020,08,07,02,13,0.00
2020,08,07,02,14,0.00
2020,08,07,02,15,0.00
2020,08,07,02,16,0.00
2020,08,07,02,17,0.00
2020,08,07,02,18,0.00
2020,08,07,02,19,0.00
2020,08,07,02,20,0.00
2020,08,07,02,21,0.00
2020,08,07,02,22,0.00
2020,08,07,02,23,0.00
2020,08,07,02,24,0.00
2020,08,07,02,25,0.00
2020,08,07,02,26,0.00
2020,08,07,02,27,0.00
2020,08,07,02,28,0.00
2020,08,07,02,29,0.00
2020,08,07,02,30,0.00
2020,08,07,02,31,0.00
2020,08,07,02,32,0.00
2020,08,07,02,33,0.00
2020,08,07,02,34,0.00
2020,08,07,02,35,0.00
2020,08,07,02,36,0.00
2020,08,07,02,37,0.00
2020,08,07,02,38,0.00
2020,08,07,02,39,0.00
2020,08,07,02,40,0.00
2020,08,07,02,41,0.00
2020,08,07,02,42,0.00
2020,08,07,02,43,0.00
2020,08,07,02,44,0.00
2020,08,07,02,45,0.00
2020,08,07,02,46,0.00
2020,08,07,02,47,0.00
2020,08,07,02,48,0.00
2020,08,07,02,49,0.00
2020,08,07,02,50,0.00
2020,08,07,02,51,0.00
2020,08,07,02,52,0.00
2020,08,07,02,53,0.00
2020,08,07,02,54,0.00
2020,08,07,02,55,0.00
2020,08,07,02,56,0.00
2020,08,07,02,57,0.00
2020,08,07,02,58,0.00
2020,08,07,02,59,0.00
2020,08,07,03,00,0.00
2020,08,07,03,01,0.00
2020,08,07,03,02,0.00
2020,08,07,03,03,0.00
2020,08,07,03,04,0.00
2020,08,07,03,05,0.00
2020,08,07,03,06,0.00
2020,08,07,03,07,0.00
2020,08,07,03,08,0.00
2020,08,07,03,09,0.00
2020,08,07,03,10,0.00
2020,08,07,03,11,0.00
2020,08,07,03,12,0.00
2020,08,07,03,13,0.00
2020,08,07,03,14,0.00
2020,08,07,03,15,0.00
2020,08,07,03,16,0.00
2020,08,07,03,17,0.00
2020,08,07,03,18,0.00
2020,08,07,03,19,0.00
2020,08,07,03,20,0.00
2020,08,07,03,21,0.00
2020,08,07,03,22,0.00
2020,08,07,03,23,0.00
2020,08,07,03,24,0.00
2020,08,07,03,25,0.00
2020,08,07,03,26,0.00
2020,08,07,03,27,0.00
2020,08,07,03,28,0.00
2020,08,07,03,29,0.00
2020,08,07,03,30,0.00
2020,08,07,03,31,0.00
2020,08,07,03,32,0.00
2020,08,07,03,33,0.00
2020,08,07,03,34,0.00
2020,08,07,03,35,0.00
2020,08,07,03,36,0.00
2020,08,07,03,37,0.00
2020,08,07,03,38,0.00
2020,08,07,03,39,0.00
2020,08,07,03,40,0.00
2020,08,07,03,41,0.00
2020,08,07,03,42,0.00
2020,08,07,03,43,0.00
2020,08,07,03,44,0.00
2020,08,07,03,45,0.00
2020,08,07,03,46,0.00
2020,08,07,03,47,0.00
2020,08,07,03,48,0.00
2020,08,07,03,49,0.00
2020,08,07,03,50,0.00
2020,08,07,03,51,0.00
2020,08,07,03,52,0.00
2020,08,07,03,53,0.00
2020,08,07,03,54,0.00
2020,08,07,03,55,0.00
2020,08,07,03,56,0.00
2020,08,07,03,57,0.00
2020,08,07,03,58,0.00
2020,08,07,03,59,0.00
2020,08,07,04,00,0.00
2020,08,07,04,01,0.00
2020,08,07,04,02,0.00
2020,08,07,04,03,0.00
2020,08,07,04,04,0.00
2020,08,07,04,05,0.00
2020,08,07,04,06,0.00
2020,08,07,04,07,0.00
2020,08,07,04,08,0.00
2020,08,07,04,09,0.00
2020,08,07,04,10,0.00
2020,08,07,04,11,0.00
2020,08,07,04,12,0.00
2020,08,07,04,13,0.00
2020,08,07,04,14,0.00
2020,08,07,04,15,0.00
2020,08,07,04,16,0.00
2020,08,07,04,17,0.00
2020,08,07,04,18,0.00
2020,08,07,04,19,0.00
2020,08,07,04,20,0.00
2020,08,07,04,21,0.00
2020,08,07,04,22,0.00
2020,08,07,04,23,0.00
2020,08,07,04,24,0.00
2020,08,07,04,25,0.00
2020,08,07,04,26,0.00
2020,08,07,04,27,0.00
2020,08,07,04,28,0.00
2020,08,07,04,29,0.00
2020,08,07,04,30,0.00
2020,08,07,04,31,0.00
2020,08,07,04,32,0.00
2020,08,07,04,33,0.00
2020,08,07,04,34,0.00
2020,08,07,04,35,0.00
2020,08,07,04,36,0.00
2020,08,07,04,37,0.00
2020,08,07,04,38,0.00
2020,08,07,04,39,0.00
2020,08,07,04,40,0.00
2020,08,07,04,41,0.00
2020,08,07,04,42,0.00
2020,08,07,04,43,0.00
2020,08,07,04,44,0.00
2020,08,07,04,45,0.00
2020,08,07,04,46,0.00
2020,08,07,04,47,0.00
2020,08,07,04,48,0.00
2020,08,07,04,49,0.00
2020,08,07,04,50,0.00
2020,08,07,04,51,0.00
2020,08,07,04,52,0.00
2020,08,07,04,53,0.00
2020,08,07,04,54,0.00
2020,08,07,04,55,0.00
2020,08,07,04,56,0.00
2020,08,07,04,57,0.00
2020,08,07,04,58,0.00
2020,08,07,04,59,0.00
2020,08,07,05,00,0.00
2020,08,07,05,01,0.00
2020,08,07,05,02,0.00
2020,08,07,05,03,0.00
2020,08,07,05,04,0.00
2020,08,07,05,05,0.00
2020,08,07,05,06,0.00
2020,08,07,05,07,0.00
2020,08,07,05,08,0.00
2020,08,07,05,09,0.00
2020,08,07,05,10,0.00
2020,08,07,05,11,0.00
2020,08,07,05,12,0.00
2020,08,07,05,13,0.00
2020,08,07,05,14,0.00
2020,08,07,05,15,0.00
2020,08,07,05,16,0.00
2020,08,07,05,17,0.00
2020,08,07,05,18,0.00
2020,08,07,05,19,0.00
2020,08,07,05,20,0.00
2020,08,07,05,21,0.00
2020,08,07,05,22,0.00
2020,08,07,05,23,0.00
2020,08,07,05,24,0.00
2020,08,07,05,25,0.00
2020,08,07,05,26,0.00
2020,08,07,05,27,0.00
2020,08,07,05,28,0.00
2020,08,07,05,29,0.00
2020,08,07,05,30,0.00
2020,08,07,05,31,0.00
2020,08,07,05,32,0.00
2020,08,07,05,33,0.00
2020,08,07,05,34,0.00
2020,08,07,05,35,0.00
2020,08,07,05,36,0.00
2020,08,07,05,37,0.00
2020,08,07,05,38,0.00
2020,08,07,05,39,0.00
2020,08,07,05,40,0.00
2020,08,07,05,41,0.00
2020,08,07,05,42,0.00
2020,08,07,05,43,0.00
2020,08,07,05,44,0.00
2020,08,07,05,45,0.00
2020,08,07,05,46,0.00
2020,08,07,05,47,0.00
2020,08,07,05,48,0.00
2020,08,07,05,49,0.00
2020,08,07,05,50,0.00
2020,08,07,05,51,0.00
2020,08,07,05,52,0.00
2020,08,07,05,53,0.00
2020,08,07,05,54,0.00
2020,08,07,05,55,0.00
2020,08,07,05,56,0.00
2020,08,07,05,57,0.00
2020,08,07,05,58,0.00
2020,08,07,05,59,0.00
2020,08,07,06,00,0.00
2020,08,07,06,01,3.50
2020,08,07,06,02,5.00
2020,08,07,06,03,5.00
2020,08,07,06,04,5.30
2020,08,07,06,05,7.00
2020,08,07,06,06,7.00
2020,08,07,06,07,7.90
2020,08,07,06,08,9.00
2020,08,07,06,09,9.00
2020,08,07,06,10,10.50
2020,08,07,06,11,11.00
2020,08,07,06,12,11.00
2020,08,07,06,13,11.20
2020,08,07,06,14,12.00
2020,08,07,06,15,12.00
2020,08,07,06,16,12.00
2020,08,07,06,17,13.20
2020,08,07,06,18,14.00
2020,08,07,06,19,17.20
2020,08,07,06,20,18.90
2020,08,07,06,21,19.30
2020,08,07,06,22,21.00
2020,08,07,06,23,21.60
2020,08,07,06,24,23.00
2020,08,07,06,25,24.10
2020,08,07,06,26,25.60
2020,08,07,06,27,27.50
2020,08,07,06,28,28.00
2020,08,07,06,29,30.10
2020,08,07,06,30,32.20
2020,08,07,06,31,33.00
2020,08,07,06,32,33.70
2020,08,07,06,33,35.90
2020,08,07,06,34,38.20
2020,08,07,06,35,39.70
2020,08,07,06,36,41.60
2020,08,07,06,37,42.00
2020,08,07,06,38,44.20
2020,08,07,06,39,46.20
2020,08,07,06,40,47.00
2020,08,07,06,41,48.60
2020,08,07,06,42,52.10
2020,08,07,06,43,53.70
2020,08,07,06,44,55.50
2020,08,07,06,45,56.00
2020,08,07,06,46,56.20
2020,08,07,06,47,60.30
2020,08,07,06,48,62.20
2020,08,07,06,49,63.70
2020,08,07,06,50,65.90
2020,08,07,06,51,68.80
2020,08,07,06,52,70.00
2020,08,07,06,53,73.00
2020,08,07,06,54,76.60
2020,08,07,06,55,79.10
2020,08,07,06,56,81.40
2020,08,07,06,57,83.30
2020,08,07,06,58,84.70
2020,08,07,06,59,87.00
2020,08,07,07,00,89.20
2020,08,07,07,01,92.10
2020,08,07,07,02,94.60
2020,08,07,07,03,96.80
2020,08,07,07,04,98.20
2020,08,07,07,05,100.40
2020,08,07,07,06,102.90
2020,08,07,07,07,105.90
2020,08,07,07,08,108.10
2020,08,07,07,09,110.30
2020,08,07,07,10,113.10
2020,08,07,07,11,115.80
2020,08,07,07,12,117.90
2020,08,07,07,13,118.40
2020,08,07,07,14,120.30
2020,08,07,07,15,121.70
2020,08,07,07,16,124.90
2020,08,07,07,17,127.60
2020,08,07,07,18,129.40
2020,08,07,07,19,131.60
2020,08,07,07,20,133.80
2020,08,07,07,21,135.20
2020,08,07,07,22,137.80
2020,08,07,07,23,142.10
2020,08,07,07,24,144.80
2020,08,07,07,25,147.00
2020,08,07,07,26,149.80
2020,08,07,07,27,152.40
2020,08,07,07,28,154.70
2020,08,07,07,29,156.10
2020,08,07,07,30,160.40
2020,08,07,07,31,163.00
2020,08,07,07,32,163.70
2020,08,07,07,33,166.00
2020,08,07,07,34,168.10
2020,08,07,07,35,172.40
2020,08,07,07,36,174.00
2020,08,07,07,37,175.70
2020,08,07,07,38,178.10
2020,08,07,07,39,180.20
2020,08,07,07,40,185.30
2020,08,07,07,41,186.80
2020,08,07,07,42,189.00
2020,08,07,07,43,193.20
2020,08,07,07,44,198.00
2020,08,07,07,45,199.00
2020,08,07,07,46,199.90
2020,08,07,07,47,204.40
2020,08,07,07,48,207.00
2020,08,07,07,49,208.40
2020,08,07,07,50,212.30
2020,08,07,07,51,215.10
2020,08,07,07,52,217.30
2020,08,07,07,53,220.20
2020,08,07,07,54,222.70
2020,08,07,07,55,225.10
2020,08,07,07,56,228.70
2020,08,07,07,57,229.00
2020,08,07,07,58,234.80
2020,08,07,07,59,236.50
2020,08,07,08,00,239.20
2020,08,07,08,01,241.00
2020,08,07,08,02,242.50
2020,08,07,08,03,245.70
2020,08,07,08,04,250.70
2020,08,07,08,05,249.00
2020,08,07,08,06,254.20
2020,08,07,08,07,257.40
2020,08,07,08,08,259.00
2020,08,07,08,09,262.50
2020,08,07,08,10,266.10
2020,08,07,08,11,268.60
2020,08,07,08,12,271.80
2020,08,07,08,13,274.30
2020,08,07,08,14,276.80
2020,08,07,08,15,280.30
2020,08,07,08,16,283.90
2020,08,07,08,17,286.20
2020,08,07,08,18,287.60
2020,08,07,08,19,289.60
2020,08,07,08,20,294.50
2020,08,07,08,21,295.40
2020,08,07,08,22,299.00
2020,08,07,08,23,300.50
2020,08,07,08,24,305.60
2020,08,07,08,25,308.00
2020,08,07,08,26,308.60
2020,08,07,08,27,311.70
2020,08,07,08,28,315.40
2020,08,07,08,29,319.80
2020,08,07,08,30,322.10
2020,08,07,08,31,324.00
2020,08,07,08,32,327.00
2020,08,07,08,33,327.90
2020,08,07,08,34,330.60
2020,08,07,08,35,334.50
2020,08,07,08,36,337.50
2020,08,07,08,37,342.20
2020,08,07,08,38,346.50
2020,08,07,08,39,355.80
2020,08,07,08,40,362.80
2020,08,07,08,41,374.30
2020,08,07,08,42,385.00
2020,08,07,08,43,397.50
2020,08,07,08,44,411.40
2020,08,07,08,45,427.00
2020,08,07,08,46,440.00
2020,08,07,08,47,441.00
2020,08,07,08,48,441.00
2020,08,07,08,49,385.70
2020,08,07,08,50,299.80
2020,08,07,08,51,323.00
2020,08,07,08,52,430.90
2020,08,07,08,53,499.30
2020,08,07,08,54,503.00
2020,08,07,08,55,289.10
2020,08,07,08,56,257.10
2020,08,07,08,57,258.00
2020,08,07,08,58,291.90
2020,08,07,08,59,383.30
2020,08,07,09,00,432.20
2020,08,07,09,01,439.00
2020,08,07,09,02,356.50
2020,08,07,09,03,329.00
2020,08,07,09,04,325.30
2020,08,07,09,05,279.20
2020,08,07,09,06,233.80
2020,08,07,09,07,221.80
2020,08,07,09,08,205.00
2020,08,07,09,09,199.00
2020,08,07,09,10,205.00
2020,08,07,09,11,207.00
2020,08,07,09,12,239.40
2020,08,07,09,13,224.20
2020,08,07,09,14,217.10
2020,08,07,09,15,199.70
2020,08,07,09,16,182.90
2020,08,07,09,17,176.00
2020,08,07,09,18,172.80
2020,08,07,09,19,171.00
2020,08,07,09,20,250.90
2020,08,07,09,21,223.20
2020,08,07,09,22,274.70
2020,08,07,09,23,503.00
2020,08,07,09,24,465.40
2020,08,07,09,25,401.00
2020,08,07,09,26,446.00
2020,08,07,09,27,493.50
2020,08,07,09,28,503.40
2020,08,07,09,29,511.20
2020,08,07,09,30,514.10
2020,08,07,09,31,511.60
2020,08,07,09,32,536.00
2020,08,07,09,33,541.30
2020,08,07,09,34,545.60
2020,08,07,09,35,551.90
2020,08,07,09,36,554.70
2020,08,07,09,37,558.40
2020,08,07,09,38,561.20
2020,08,07,09,39,516.60
2020,08,07,09,40,536.00
2020,08,07,09,41,536.00
2020,08,07,09,42,510.80
2020,08,07,09,43,425.00
2020,08,07,09,44,380.00
2020,08,07,09,45,504.80
2020,08,07,09,46,533.50
2020,08,07,09,47,534.20
2020,08,07,09,48,536.60
2020,08,07,09,49,540.30
2020,08,07,09,50,541.00
2020,08,07,09,51,545.00
2020,08,07,09,52,553.00
2020,08,07,09,53,556.40
2020,08,07,09,54,555.40
2020,08,07,09,55,556.80
2020,08,07,09,56,559.30
2020,08,07,09,57,561.70
2020,08,07,09,58,565.90
2020,08,07,09,59,570.00
2020,08,07,10,00,570.50
2020,08,07,10,01,570.30
2020,08,07,10,02,568.50
2020,08,07,10,03,566.30
2020,08,07,10,04,570.80
2020,08,07,10,05,570.20
2020,08,07,10,06,566.00
2020,08,07,10,07,570.80
2020,08,07,10,08,577.50
2020,08,07,10,09,577.00
2020,08,07,10,10,581.90
2020,08,07,10,11,588.00
2020,08,07,10,12,595.30
2020,08,07,10,13,612.70
2020,08,07,10,14,623.00
2020,08,07,10,15,624.80
2020,08,07,10,16,612.40
2020,08,07,10,17,634.00
2020,08,07,10,18,650.80
2020,08,07,10,19,666.00
2020,08,07,10,20,667.60
2020,08,07,10,21,676.50
2020,08,07,10,22,677.80
2020,08,07,10,23,685.20
2020,08,07,10,24,677.50
2020,08,07,10,25,647.00
2020,08,07,10,26,647.00
2020,08,07,10,27,647.00
2020,08,07,10,28,678.50
2020,08,07,10,29,672.80
2020,08,07,10,30,653.30
2020,08,07,10,31,646.20
2020,08,07,10,32,642.70
2020,08,07,10,33,642.00
2020,08,07,10,34,640.90
2020,08,07,10,35,640.00
2020,08,07,10,36,640.00
2020,08,07,10,37,644.00
2020,08,07,10,38,646.90
2020,08,07,10,39,655.30
2020,08,07,10,40,664.20
2020,08,07,10,41,666.80
2020,08,07,10,42,664.90
2020,08,07,10,43,666.00
2020,08,07,10,44,666.00
2020,08,07,10,45,666.00
2020,08,07,10,46,664.30
2020,08,07,10,47,667.00
2020,08,07,10,48,677.00
2020,08,07,10,49,677.00
2020,08,07,10,50,671.40
2020,08,07,10,51,667.00
2020,08,07,10,52,665.80
2020,08,07,10,53,661.00
2020,08,07,10,54,662.60
2020,08,07,10,55,665.70
2020,08,07,10,56,689.90
2020,08,07,10,57,697.60
2020,08,07,10,58,696.00
2020,08,07,10,59,700.40
2020,08,07,11,00,723.30
2020,08,07,11,01,707.40
2020,08,07,11,02,705.90
2020,08,07,11,03,714.80
2020,08,07,11,04,625.00
2020,08,07,11,05,615.00
2020,08,07,11,06,599.20
2020,08,07,11,07,555.00
2020,08,07,11,08,523.50
2020,08,07,11,09,476.20
2020,08,07,11,10,419.00
2020,08,07,11,11,394.00
2020,08,07,11,12,512.80
2020,08,07,11,13,458.10
2020,08,07,11,14,461.00
2020,08,07,11,15,461.00
2020,08,07,11,16,461.00
2020,08,07,11,17,554.00
2020,08,07,11,18,618.20
2020,08,07,11,19,599.00
2020,08,07,11,20,599.00
2020,08,07,11,21,861.80
2020,08,07,11,22,805.00
2020,08,07,11,23,805.00
2020,08,07,11,24,663.60
2020,08,07,11,25,426.70
2020,08,07,11,26,515.30
2020,08,07,11,27,559.00
2020,08,07,11,28,760.80
2020,08,07,11,29,828.00
2020,08,07,11,30,826.70
2020,08,07,11,31,798.00
2020,08,07,11,32,751.90
2020,08,07,11,33,688.20
2020,08,07,11,34,670.00
2020,08,07,11,35,670.00
2020,08,07,11,36,497.90
2020,08,07,11,37,409.30
2020,08,07,11,38,393.20
2020,08,07,11,39,406.80
2020,08,07,11,40,441.00
2020,08,07,11,41,441.00
2020,08,07,11,42,441.00
2020,08,07,11,43,554.30
2020,08,07,11,44,641.30
2020,08,07,11,45,638.00
2020,08,07,11,46,515.60
2020,08,07,11,47,484.50
2020,08,07,11,48,506.00
2020,08,07,11,49,541.50
2020,08,07,11,50,564.00
2020,08,07,11,51,582.50
2020,08,07,11,52,597.80
2020,08,07,11,53,576.90
2020,08,07,11,54,563.20
2020,08,07,11,55,545.60
2020,08,07,11,56,540.70
2020,08,07,11,57,583.40
2020,08,07,11,58,558.00
2020,08,07,11,59,554.10
2020,08,07,12,00,558.00
2020,08,07,12,01,529.30
2020,08,07,12,02,495.90
2020,08,07,12,03,420.20
2020,08,07,12,04,391.30
2020,08,07,12,05,398.40
2020,08,07,12,06,416.00
2020,08,07,12,07,446.00
2020,08,07,12,08,446.00
2020,08,07,12,09,446.00
2020,08,07,12,10,446.00
2020,08,07,12,11,968.80
2020,08,07,12,12,1143.00
2020,08,07,12,13,1115.20
2020,08,07,12,14,1095.00
2020,08,07,12,15,1021.80
2020,08,07,12,16,970.00
2020,08,07,12,17,1045.00
2020,08,07,12,18,1062.90
2020,08,07,12,19,1076.00
2020,08,07,12,20,1100.00
2020,08,07,12,21,1100.00
2020,08,07,12,22,674.10
2020,08,07,12,23,747.00
2020,08,07,12,24,794.40
2020,08,07,12,25,914.20
2020,08,07,12,26,882.50
2020,08,07,12,27,837.00
2020,08,07,12,28,837.00
2020,08,07,12,29,956.00
2020,08,07,12,30,941.00
2020,08,07,12,31,917.10
2020,08,07,12,32,779.20
2020,08,07,12,33,711.80
2020,08,07,12,34,634.20
2020,08,07,12,35,573.20
2020,08,07,12,36,544.80
2020,08,07,12,37,538.80
2020,08,07,12,38,569.50
2020,08,07,12,39,590.70
2020,08,07,12,40,663.50
2020,08,07,12,41,617.50
2020,08,07,12,42,630.80
2020,08,07,12,43,631.50
2020,08,07,12,44,618.40
2020,08,07,12,45,615.70
2020,08,07,12,46,652.20
2020,08,07,12,47,661.00
2020,08,07,12,48,641.30
2020,08,07,12,49,691.10
2020,08,07,12,50,719.20
2020,08,07,12,51,639.70
2020,08,07,12,52,606.20
2020,08,07,12,53,597.50
2020,08,07,12,54,571.50
2020,08,07,12,55,577.60
2020,08,07,12,56,576.00
2020,08,07,12,57,555.60
2020,08,07,12,58,567.20
2020,08,07,12,59,584.30
2020,08,07,13,00,562.50
2020,08,07,13,01,544.30
2020,08,07,13,02,533.10
2020,08,07,13,03,549.40
2020,08,07,13,04,535.20
2020,08,07,13,05,523.10
2020,08,07,13,06,515.00
2020,08,07,13,07,511.70
2020,08,07,13,08,499.20
2020,08,07,13,09,488.50
2020,08,07,13,10,483.20
2020,08,07,13,11,480.60
2020,08,07,13,12,476.60
2020,08,07,13,13,476.00
2020,08,07,13,14,478.60
2020,08,07,13,15,482.30
2020,08,07,13,16,482.00
2020,08,07,13,17,476.00
2020,08,07,13,18,468.20
2020,08,07,13,19,464.70
2020,08,07,13,20,462.50
2020,08,07,13,21,462.00
2020,08,07,13,22,466.70
2020,08,07,13,23,475.80
2020,08,07,13,24,493.60
2020,08,07,13,25,520.00
2020,08,07,13,26,540.50
2020,08,07,13,27,537.60
2020,08,07,13,28,528.80
2020,08,07,13,29,526.20
2020,08,07,13,30,519.70
2020,08,07,13,31,514.70
2020,08,07,13,32,512.00
2020,08,07,13,33,497.00
2020,08,07,13,34,459.30
2020,08,07,13,35,437.10
2020,08,07,13,36,421.00
2020,08,07,13,37,412.50
2020,08,07,13,38,411.00
2020,08,07,13,39,411.30
2020,08,07,13,40,418.20
2020,08,07,13,41,428.90
2020,08,07,13,42,440.80
2020,08,07,13,43,450.50
2020,08,07,13,44,459.20
2020,08,07,13,45,464.70
2020,08,07,13,46,471.60
2020,08,07,13,47,475.70
2020,08,07,13,48,481.40
2020,08,07,13,49,474.00
2020,08,07,13,50,466.00
2020,08,07,13,51,465.10
2020,08,07,13,52,462.40
2020,08,07,13,53,461.00
2020,08,07,13,54,454.20
2020,08,07,13,55,442.60
2020,08,07,13,56,443.60
2020,08,07,13,57,457.30
2020,08,07,13,58,459.00
2020,08,07,13,59,457.20
2020,08,07,14,00,448.50
2020,08,07,14,01,441.00
2020,08,07,14,02,444.20
2020,08,07,14,03,452.80
2020,08,07,14,04,442.40
2020,08,07,14,05,419.90
2020,08,07,14,06,398.20
2020,08,07,14,07,381.20
2020,08,07,14,08,377.60
2020,08,07,14,09,387.00
2020,08,07,14,10,406.60
2020,08,07,14,11,421.30
2020,08,07,14,12,405.60
2020,08,07,14,13,374.50
2020,08,07,14,14,344.50
2020,08,07,14,15,321.00
2020,08,07,14,16,304.10
2020,08,07,14,17,290.80
2020,08,07,14,18,283.90
2020,08,07,14,19,286.20
2020,08,07,14,20,294.30
2020,08,07,14,21,302.70
2020,08,07,14,22,310.90
2020,08,07,14,23,316.60
2020,08,07,14,24,320.00
2020,08,07,14,25,320.00
2020,08,07,14,26,321.00
2020,08,07,14,27,326.10
2020,08,07,14,28,336.00
2020,08,07,14,29,349.40
2020,08,07,14,30,362.80
2020,08,07,14,31,377.20
2020,08,07,14,32,390.60
2020,08,07,14,33,404.60
2020,08,07,14,34,417.60
2020,08,07,14,35,423.00
2020,08,07,14,36,429.60
2020,08,07,14,37,434.00
2020,08,07,14,38,440.00
2020,08,07,14,39,453.80
2020,08,07,14,40,477.20
2020,08,07,14,41,488.20
2020,08,07,14,42,480.50
2020,08,07,14,43,470.90
2020,08,07,14,44,457.40
2020,08,07,14,45,446.40
2020,08,07,14,46,441.40
2020,08,07,14,47,444.40
2020,08,07,14,48,447.50
2020,08,07,14,49,442.60
2020,08,07,14,50,441.00
2020,08,07,14,51,432.60
2020,08,07,14,52,414.00
2020,08,07,14,53,403.90
2020,08,07,14,54,398.20
2020,08,07,14,55,398.60
2020,08,07,14,56,403.50
2020,08,07,14,57,414.90
2020,08,07,14,58,432.40
2020,08,07,14,59,440.80
2020,08,07,15,00,446.00
2020,08,07,15,01,416.30
2020,08,07,15,02,384.90
2020,08,07,15,03,377.30
2020,08,07,15,04,373.50
2020,08,07,15,05,371.30
2020,08,07,15,06,373.20
2020,08,07,15,07,373.70
2020,08,07,15,08,372.30
2020,08,07,15,09,370.10
2020,08,07,15,10,364.80
2020,08,07,15,11,353.60
2020,08,07,15,12,340.50
2020,08,07,15,13,329.90
2020,08,07,15,14,325.20
2020,08,07,15,15,327.00
2020,08,07,15,16,325.70
2020,08,07,15,17,321.80
2020,08,07,15,18,317.90
2020,08,07,15,19,314.20
2020,08,07,15,20,304.80
2020,08,07,15,21,289.20
2020,08,07,15,22,269.00
2020,08,07,15,23,248.80
2020,08,07,15,24,232.80
2020,08,07,15,25,219.90
2020,08,07,15,26,210.40
2020,08,07,15,27,201.90
2020,08,07,15,28,196.40
2020,08,07,15,29,195.00
2020,08,07,15,30,195.00
2020,08,07,15,31,194.80
2020,08,07,15,32,192.80
2020,08,07,15,33,191.40
2020,08,07,15,34,188.50
2020,08,07,15,35,185.50
2020,08,07,15,36,183.80
2020,08,07,15,37,180.00
2020,08,07,15,38,176.60
2020,08,07,15,39,174.10
2020,08,07,15,40,171.00
2020,08,07,15,41,170.50
2020,08,07,15,42,169.00
2020,08,07,15,43,168.20
2020,08,07,15,44,167.00
2020,08,07,15,45,167.00
2020,08,07,15,46,165.50
2020,08,07,15,47,165.00
2020,08,07,15,48,165.00
2020,08,07,15,49,165.00
2020,08,07,15,50,165.60
2020,08,07,15,51,167.00
2020,08,07,15,52,168.00
2020,08,07,15,53,167.90
2020,08,07,15,54,165.70
2020,08,07,15,55,163.40
2020,08,07,15,56,163.00
2020,08,07,15,57,165.00
2020,08,07,15,58,164.60
2020,08,07,15,59,162.70
2020,08,07,16,00,160.40
2020,08,07,16,01,155.20
2020,08,07,16,02,148.80
2020,08,07,16,03,140.80
2020,08,07,16,04,135.00
2020,08,07,16,05,127.40
2020,08,07,16,06,122.20
2020,08,07,16,07,118.00
2020,08,07,16,08,116.60
2020,08,07,16,09,113.60
2020,08,07,16,10,113.00
2020,08,07,16,11,113.00
2020,08,07,16,12,113.00
2020,08,07,16,13,115.60
2020,08,07,16,14,120.30
2020,08,07,16,15,123.80
2020,08,07,16,16,129.50
2020,08,07,16,17,135.30
2020,08,07,16,18,138.90
2020,08,07,16,19,141.60
2020,08,07,16,20,142.00
2020,08,07,16,21,143.60
2020,08,07,16,22,142.20
2020,08,07,16,23,142.00
2020,08,07,16,24,142.00
2020,08,07,16,25,142.00
2020,08,07,16,26,141.60
2020,08,07,16,27,141.00
2020,08,07,16,28,139.70
2020,08,07,16,29,139.00
2020,08,07,16,30,139.00
2020,08,07,16,31,141.10
2020,08,07,16,32,146.30
2020,08,07,16,33,148.20
2020,08,07,16,34,149.00
2020,08,07,16,35,149.00
2020,08,07,16,36,147.30
2020,08,07,16,37,144.70
2020,08,07,16,38,141.80
2020,08,07,16,39,139.30
2020,08,07,16,40,136.70
2020,08,07,16,41,133.20
2020,08,07,16,42,129.40
2020,08,07,16,43,126.70
2020,08,07,16,44,125.00
2020,08,07,16,45,123.70
2020,08,07,16,46,124.40
2020,08,07,16,47,125.00
2020,08,07,16,48,125.00
2020,08,07,16,49,125.00
2020,08,07,16,50,125.00
2020,08,07,16,51,124.30
2020,08,07,16,52,122.10
2020,08,07,16,53,121.00
2020,08,07,16,54,120.30
2020,08,07,16,55,120.00
2020,08,07,16,56,120.00
2020,08,07,16,57,120.00
2020,08,07,16,58,119.60
2020,08,07,16,59,118.00
2020,08,07,17,00,115.00
2020,08,07,17,01,109.10
2020,08,07,17,02,105.20
2020,08,07,17,03,102.60
2020,08,07,17,04,102.00
2020,08,07,17,05,103.80
2020,08,07,17,06,105.60
2020,08,07,17,07,109.80
2020,08,07,17,08,114.80